Weather History for Cape Girardeau, MO

Change the Weather History Date:

Tuesday, April 15, 2014

  Actual Average Record
Temperature  
Mean Temperature 41 °F 57 °F  
Max Temperature 50 °F 69 °F 87 °F (1992)
Min Temperature 31 °F 45 °F 29 °F (2008)
Degree Days  
Heating Degree Days 24 9  
Month to date heating degree days 133 165  
Since 1 July heating degree days 4776 4221  
Cooling Degree Days 0 1  
Month to date cooling degree days 7 9  
Year to date cooling degree days 7 13  
Moisture  
Dew Point 24 °F    
Average Humidity 53    
Maximum Humidity 75    
Minimum Humidity 31    
Precipitation  
Precipitation 0.00 in 0.13 in 4.48 in (1972)
Month to date precipitation 3.71 2.02  
Year to date precipitation 9.16 13.30  
Sea Level Pressure  
Sea Level Pressure 30.18 in    
Wind  
Wind Speed 11 mph (North)    
Max Wind Speed 25 mph    
Max Gust Speed 32 mph    
Visibility 10 miles    
Events      
T = Trace of Precipitation, MM = Missing Value Source: NWS Daily Summary

Daily Weather History Graph

Daily Weather History Graph

Search for Another Location

Airport:

Trip Planner

Search our weather history database for the weather conditions in past years. The results will help you decide how hot, cold, wet, or windy it might be!

Date:

Astronomy

Apr. 15, 2014 Rise Set
Actual Time 6:23 AM CDT 7:33 PM CDT
Civil Twilight 5:56 AM CDT 8:00 PM CDT
Nautical Twilight 5:24 AM CDT 8:32 PM CDT
Astronomical Twilight 4:51 AM CDT 9:05 PM CDT
Moon 8:13 PM CDT (4/15) 6:31 AM CDT (4/15)
Length of Visible Light 14h 03m
Length of Day
13h 09m
Full, 100% of the Moon is Illuminated
Apr 15
Full
Apr 22
Last Quarter
Apr 29
New
May 6
First Quarter
May 14
Full

Hourly Weather History & Observations

Time (CDT) Temp. Windchill Dew Point Humidity Pressure Visibility Wind Dir Wind Speed Gust Speed Precip Events Conditions
12:08 AM 39.0 °F 28.5 °F 30.0 °F 70% 30.07 in 10.0 mi NNW 23.0 mph 31.1 mph N/A   Overcast
12:21 AM 39.0 °F 28.3 °F 28.9 °F 67% 30.07 in 10.0 mi NNW 24.2 mph 31.1 mph N/A   Overcast
12:53 AM 37.9 °F 28.9 °F 27.0 °F 65% 30.09 in 10.0 mi NNW 16.1 mph 34.5 mph N/A   Overcast
1:53 AM 36.0 °F 26.7 °F 27.0 °F 70% 30.09 in 10.0 mi North 15.0 mph - N/A   Partly Cloudy
2:53 AM 35.1 °F 25.5 °F 27.0 °F 72% 30.09 in 10.0 mi NNW 15.0 mph - N/A   Clear
3:53 AM 34.0 °F 26.6 °F 25.0 °F 70% 30.11 in 10.0 mi NNW 9.2 mph - N/A   Clear
4:53 AM 33.1 °F 25.5 °F 26.1 °F 75% 30.12 in 10.0 mi NNW 9.2 mph - N/A   Clear
5:53 AM 32.0 °F 25.6 °F 25.0 °F 75% 30.14 in 10.0 mi NW 6.9 mph - N/A   Clear
6:53 AM 33.1 °F 25.5 °F 25.0 °F 72% 30.18 in 10.0 mi NW 9.2 mph - N/A   Clear
7:53 AM 35.1 °F 26.9 °F 25.0 °F 67% 30.20 in 10.0 mi NNW 11.5 mph - N/A   Clear
8:53 AM 37.9 °F 28.5 °F 23.0 °F 55% 30.21 in 10.0 mi NNW 17.3 mph 23.0 mph N/A   Clear
9:53 AM 41.0 °F 31.6 °F 19.9 °F 43% 30.23 in 10.0 mi NNE 20.7 mph 27.6 mph N/A   Clear
10:53 AM 42.1 °F 32.6 °F 19.9 °F 41% 30.24 in 10.0 mi North 23.0 mph 32.2 mph N/A   Clear
11:53 AM 44.1 °F 37.1 °F 21.0 °F 40% 30.24 in 10.0 mi NNW 15.0 mph 26.5 mph N/A   Clear
12:53 PM 46.0 °F 39.9 °F 23.0 °F 40% 30.24 in 10.0 mi North 13.8 mph 26.5 mph N/A   Clear
1:53 PM 46.9 °F - 21.9 °F 37% 30.23 in 10.0 mi NNW 18.4 mph 23.0 mph N/A   Clear
2:53 PM 48.0 °F - 21.0 °F 34% 30.22 in 10.0 mi North 17.3 mph 23.0 mph N/A   Clear
3:53 PM 50.0 °F - 21.9 °F 33% 30.21 in 10.0 mi North 12.7 mph 19.6 mph N/A   Clear
4:53 PM 50.0 °F - 21.0 °F 32% 30.21 in 10.0 mi North 13.8 mph - N/A   Clear
5:53 PM 48.9 °F - 19.9 °F 32% 30.20 in 10.0 mi North 9.2 mph - N/A   Clear
6:53 PM 46.9 °F - 21.9 °F 37% 30.20 in 10.0 mi ENE 10.4 mph - N/A   Clear
7:53 PM 42.1 °F 38.4 °F 25.0 °F 51% 30.20 in 10.0 mi ENE 5.8 mph - N/A   Clear
8:53 PM 41.0 °F 36.4 °F 26.1 °F 55% 30.22 in 10.0 mi East 6.9 mph - N/A   Clear
9:53 PM 39.0 °F 34.8 °F 25.0 °F 57% 30.24 in 10.0 mi East 5.8 mph - N/A   Clear
10:53 PM 39.0 °F - 26.1 °F 60% 30.26 in 10.0 mi Calm Calm - N/A   Clear
11:53 PM 37.9 °F 34.4 °F 27.0 °F 65% 30.27 in 10.0 mi ESE 4.6 mph - N/A   Clear